Regional Weather Roundup
Issued by NWS

Home | Current Version | Previous Version | Text Only | Print | Product List | Glossary On
Versions: 1 2 3 4 5 6 7 8 9 10 11 12 13 14 15 16 17 18 19 20 21 22 23 24 25 26 27 28 29 30 31 32 33 34 35 36 37 38 39 40 41 42 43 44 45 46 47 48 49 50
000
ASUS43 KDTX 030310
RWRMI
MICHIGAN HOURLY REGIONAL WEATHER ROUNDUP
NATIONAL WEATHER SERVICE DETROIT/PONTIAC MI
1100 PM EDT TUE JUN 02 2015

NOTE: "FAIR" INDICATES FEW OR NO CLOUDS BELOW 12,000 FEET WITH NO
SIGNIFICANT WEATHER AND/OR OBSTRUCTION TO VISIBILITY.

MIZ047>049-052>055-059>063-066>070-074>076-081>083-030400-
SOUTHEAST LOWER MICHIGAN

CITY           SKY/WX    TMP DP  RH WIND       PRES   REMARKS
ADRIAN         CLEAR     55  45  68 E3        30.16S
ALMA           CLEAR     54  47  75 E6        30.15R
ANN ARBOR      CLEAR     50  49  96 CALM      30.15F
BAD AXE        CLEAR     50  33  51 CALM      30.18R
CARO           CLEAR     53  45  74 E6        30.17R
DETROIT CITY   CLEAR     57  49  74 E5        30.17S
DETROIT        PTCLDY    58  45  62 E3        30.16F
FLINT          CLEAR     56  44  64 SE6       30.16R
GROSSE ILE     CLEAR     57  46  67 E3        30.15S
HILLSDALE      CLEAR     53  46  77 CALM      30.16R
HOWELL         CLEAR     58  47  68 S5        30.16R

CITY           SKY/WX    TMP DP  RH WIND       PRES   REMARKS
JACKSON        CLEAR     55  45  68 SE5       30.16R
LAMBERTVILLE   CLEAR     55  46  71 CALM      30.16S
LANSING        CLEAR     60  47  61 S10       30.15R
LAPEER         FAIR      55  50  81 CALM      30.17S
MASON          CLEAR     55  46  72 S5        30.15R
MONROE         CLEAR     55  46  71 E5        30.14S
MT. CLEMENS    CLEAR     56  50  79 E6        30.15S
PONTIAC        PTCLDY    60  50  69 SE5       30.15S
PORT HOPE        N/A     49  41  74 SE6       30.16S
PORT HURON     CLEAR     48  46  93 CALM      30.19R
TRI CITIES     CLEAR     57  45  64 NE3       30.17R
MIDLAND        FAIR      53  42  65 NE3       30.15R
TROY           CLEAR     61  50  65 E5        30.18S
SAGINAW HB     CLEAR     54  46  76 CALM      30.15R
$$
MIZ043>046-050>051-056>058-064>065-071>073-077>080-030400-
SOUTHWEST LOWER MICHIGAN

CITY           SKY/WX    TMP DP  RH WIND       PRES   REMARKS
BATTLE CREEK   CLEAR     61  47  59 SE7       30.14R
BENTON HARBOR  CLEAR     49  45  86 CALM      30.12R
BIG RAPIDS     CLEAR     53  44  71 CALM      30.12S
COLDWATER      CLEAR     54  44  67 SE5       30.14F
FREMONT        FAIR      56  44  63 NE3       30.12R
HOLLAND        CLEAR     55  46  71 CALM      30.13R
GRAND RAPIDS   PTCLDY    59  51  75 CALM      30.12R
IONIA          FAIR      58  49  73 E6        30.12R
KALAMAZOO      CLEAR     62  48  60 SE6       30.14R
LUDINGTON      CLEAR     48  42  77 CALM      30.13R
MARSHALL       CLEAR     58  44  60 SE5       30.14S
MOUNT PLEASANT CLEAR     55  44  66 E3        30.15R
MUSKEGON       PTCLDY    57  43  59 N3        30.12S
SOUTH HAVEN    CLEAR     51  46  82 CALM      30.12R
$$
MIZ016>042-030400-
NORTHERN LOWER MICHIGAN

CITY           SKY/WX    TMP DP  RH WIND       PRES   REMARKS
ALPENA         CLEAR     49  36  61 S7        30.15R
BEAVER ISLAND  CLEAR     44  39  80 CALM      30.12S
BELLAIRE       CLEAR     50  42  74 CALM      30.13R
CADILLAC       CLEAR     52  41  67 CALM      30.13S
CHARLEVOIX     CLEAR     49  40  71 CALM      30.14F
FRANKFORT      CLEAR     47  36  65 CALM      30.12R
GAYLORD        CLEAR     58  39  49 S7        30.13S
GRAYLING       CLEAR     57  40  54 SE7       30.14S
HARBOR SPRINGS CLEAR     49  43  79 CALM      30.12R
HOUGHTON LAKE  CLEAR     55  41  59 SE6       30.15R
MANISTEE       CLEAR     48  39  71 E5        30.13R
OSCODA         CLEAR     46  37  70 CALM      30.16R
PELLSTON       CLEAR     48  41  76 CALM      30.11S
ROGERS CITY    CLEAR     55  38  52 S6        30.14S
TRAVERSE CITY  CLEAR     50  42  74 CALM      30.12S
$$
MIZ007>008-015-030400-
EASTERN UPPER MICHIGAN

CITY           SKY/WX    TMP DP  RH WIND       PRES   REMARKS
KINROSS        CLEAR     54  32  43 SE9       30.12S
MACKINAC ISLAN CLEAR     57  38  48 SE8       30.10S
NEWBERRY       CLEAR     51  33  50 S6        30.10F
S. S. MARIE    CLEAR     55  32  41 SE6       30.12S
MUNISING         N/A     58  38  47 S8        30.05S
$$
MIZ004>006-011>014-085-030400-
CENTRAL UPPER MICHIGAN

CITY           SKY/WX    TMP DP  RH WIND       PRES   REMARKS
MANISTIQUE     CLEAR     44  38  81 S5        30.10R
ESCANABA       CLEAR     52  45  76 S6        30.07S
MENOMINEE      CLEAR     55  36  47 S8        30.06S
SAWYER-GWINN   CLEAR     56  40  53 S13       30.06R
$$
MIZ001>003-009>011-084-030400-
WESTERN UPPER MICHIGAN

CITY           SKY/WX    TMP DP  RH WIND       PRES   REMARKS
IRON MOUNTAIN  PTCLDY    57  42  57 SE7       30.04S
HOUGHTON       CLOUDY    56  42  59 E3        29.98R
COPPER HARBOR    N/A     56  38  50 W7        29.97R
IRONWOOD       PTCLDY    64  43  45 S6        29.96S
$$

ABBREVIATIONS USED IN REMARKS
   TC - TEMPERATURE IN CELSIUS
  WCI - WIND CHILL INDEX
   HX - HEAT INDEX
  VSB - VISIBILITY



USA.gov is the U.S. government's official web portal to all federal, state and local government web resources and services.